Location: Beltinge
(51.3681°N, 1.1653°E)
Time: 18:33:37
(UTC+00:00)

Daily predictions for brighter satellites

Satellite Brightness Start Highest point End
(mag) Time Altitude Azimuth Time Altitude Azimuth Time Altitude Azimuth
H-2A R/B 2.9 18:16:13 10° N 18:20:14 54° WNW 18:24:15 10° SW
SL-08 RB Rocket 4.2 18:16:13 10° SE 18:20:27 39° ENE 18:24:45 10° N
FALCON 9 DEB 2.9 18:19:04 10° WNW 18:22:16 86° SSW 18:25:28 10° ESE
HJ-1C 3.6 18:21:43 10° SE 18:24:54 46° ENE 18:28:05 10° N
COSMOS 2428 3.5 18:20:29 10° SSE 18:25:14 28° ESE 18:29:59 10° NE
SL-16 R/B 3.0 18:22:33 10° SW 18:28:08 57° NW 18:33:45 10° NNE
Cosmos 1470 Rocket 3.7 18:26:37 10° SSW 18:31:05 83° WNW 18:35:32 10° N
SKYMED 2 3.9 18:26:49 10° N 18:31:10 73° WNW 18:35:29 10° SSW
USA 307 3.0 18:27:26 10° WNW 18:31:44 67° NNE 18:35:52 11° E
Cosmos 2369 Rocket 4.2 18:29:27 10° N 18:31:45 12° NNE 18:34:02 10° NE
USA 306 3.0 18:28:42 10° WNW 18:33:01 69° NNE 18:37:06 11° E
SL-8 Rocket 4.2 18:28:50 10° SSE 18:34:42 46° E 18:40:34 10° NNE
CENTAUR R/B 3.8 18:31:25 10° SE 18:34:55 16° ESE 18:38:44 10° ENE
ATLAS CENTAUR R/B 1.4 18:32:11 10° SW 18:35:49 69° NW 18:39:32 10° NE
Meteor 2-12 Rocket 4.5 18:31:40 10° S 18:37:44 89° ESE 18:43:54 10° N
Cosmos 962 Rocket 4.5 18:32:13 10° S 18:38:25 69° E 18:44:43 10° NNE
Cosmos 1743 4.4 18:39:11 10° ESE 18:41:22 15° E 18:43:35 10° NE
Cosmos 1703 Rocket 3.6 18:37:48 10° N 18:42:13 90° W 18:46:35 10° S
USA 308 3.0 18:38:16 10° WNW 18:42:34 71° NNE 18:46:15 14° E
Cosmos 1666 2.7 18:39:14 10° S 18:42:52 54° E 18:46:33 10° NNE
Cosmos 1339 Rocket 4.5 18:37:59 10° N 18:44:13 71° ENE 18:50:31 10° SSE
Cosmos 2322 3.8 18:40:20 10° S 18:45:55 57° ESE 18:51:31 10° NE
Cosmos 1844 Rocket 3.9 18:40:43 10° NW 18:45:59 44° WSW 18:51:13 10° S
CSL-04 Rocket 3.7 18:41:01 10° SSE 18:46:32 74° ENE 18:52:00 10° NNW
Okean-O 3.0 18:45:15 10° S 18:49:40 68° WSW 18:54:06 10° NNW
ASTEX 1 4.2 18:46:17 10° NNE 18:50:32 29° E 18:54:45 10° SE
Cosmos 1777 Rocket 4.2 18:45:25 10° NNW 18:50:41 79° WSW 18:55:53 10° SSE
Cosmos 1933 Rocket 3.8 18:47:07 10° SSW 18:51:29 76° W 18:55:56 10° N
Cosmos 2366 rocket 4.2 18:46:50 10° SSE 18:52:56 52° E 18:59:05 10° NNE
H-2A R/B 2.8 18:48:25 10° S 18:53:48 60° W 18:59:10 10° NNW
CSL-04 Debris 4.2 18:48:40 10° SSE 18:54:08 88° ENE 18:59:40 10° NNW
SJ-6B 3.5 18:52:56 10° SE 18:56:37 35° ENE 19:00:16 10° N
Cosmos 2221 Rocket 4.1 18:53:28 10° N 18:57:38 38° ENE 19:01:48 10° SE
Ariane Rocket 3.6 18:55:39 10° SE 19:00:19 38° ENE 19:05:00 10° N
USA 186 1.8 18:59:36 21° SE 19:00:50 36° ENE 19:03:21 10° N
Cosmos 1500 4.4 18:58:55 10° SSW 19:02:30 45° WNW 19:06:08 10° N
OBJECT-B 1.7 19:02:10 21° ESE 19:03:31 29° ENE 19:06:23 10° N
NOSS 3-2 (C) 4.4 19:00:23 10° SSE 19:04:34 21° ESE 19:08:11 13° ENE
Okean 1-7 3.8 19:02:02 10° NNW 19:06:19 55° W 19:10:31 10° S
Meteor 1-11 Rocket 3.7 19:01:13 10° S 19:06:46 60° E 19:12:15 10° NNE
PSLV R/B 4.1 19:02:58 10° N 19:07:04 73° WNW 19:11:06 10° SSW
Cosmos 2360 Rocket 2.9 19:04:41 10° SW 19:10:16 58° NW 19:15:54 10° NNE
YAOGAN 1 4.0 19:06:36 10° SSW 19:10:40 40° W 19:14:47 10° NNW
SAR-Lupe-4 3.6 19:07:52 10° NNE 19:11:29 84° WNW 19:15:04 10° SSW
FALCON 9 DEB 3.7 19:08:56 10° WNW 19:11:59 45° SSW 19:13:45 21° SE
Cosmos 1943 Rocket 3.6 19:08:25 10° NNW 19:12:49 22° NE 19:15:25 17° ENE
Meteor 1-13 Rocket 4.5 19:07:38 10° NNW 19:13:36 78° W 19:19:25 10° S
SJ 16-02 1.3 19:10:47 10° NNW 19:15:13 76° ENE 19:19:18 12° SSE
Cosmos 1727 Rocket 3.9 19:09:25 10° N 19:15:36 67° ENE 19:21:47 10° SSE
Cosmos 2341 Rocket 4.2 19:10:17 10° SSW 19:16:34 76° WNW 19:22:51 10° N
Cosmos 2333 4.3 19:11:10 10° SSW 19:16:51 84° WNW 19:22:37 10° NNE
DMSP B5D2-2 4.1 19:11:47 10° NNE 19:16:56 55° E 19:22:02 10° S
Cosmos 1821 Rocket 4.5 19:11:43 10° SSE 19:17:16 36° E 19:22:47 10° NNE
Cosmos 2278 Rocket 2.2 19:11:37 10° NNW 19:17:20 74° ENE 19:22:11 14° SE
Cosmos 2237 Rocket 3.0 19:12:51 10° SSE 19:17:38 28° ESE 19:22:25 10° NE
Cosmos 1544 3.6 19:15:34 10° SSE 19:18:54 34° E 19:22:15 10° NNE
Okean 3 3.6 19:15:18 10° NNW 19:19:35 77° W 19:23:52 10° S
FALCON 9 DEB 4.1 19:16:51 10° W 19:19:49 36° SSW 19:21:22 22° SSE
SL-4 R/B 3.9 19:17:42 10° W 19:20:16 19° SW 19:22:47 10° S
MOS 1 4.4 19:15:42 10° SE 19:21:10 57° ENE 19:26:43 10° N
Cosmos 1536 2.7 19:17:16 10° S 19:21:14 69° E 19:25:13 10° NNE
SeaSat 1 2.6 19:19:14 10° NE 19:24:04 52° ESE 19:28:52 10° SSW
Abrixas rocket 4.0 19:24:40 10° WSW 19:26:10 15° SSW 19:26:46 14° S
SPOT 3 Rocket 4.3 19:24:24 25° ESE 19:26:29 34° ENE 19:31:11 10° N
Cosmos 2218 Rocket 4.0 19:20:48 10° S 19:27:13 88° E 19:33:38 10° N
MetOp-A 4.1 19:25:40 10° SSE 19:31:02 88° WSW 19:36:27 10° NNW
Cosmos 864 Rocket 4.4 19:24:57 10° S 19:31:08 88° E 19:37:26 10° N
SME Rocket 4.1 19:24:02 10° NNE 19:31:31 55° E 19:36:27 10° S
Meteor 2-20 Rocket 4.4 19:25:38 10° N 19:31:42 61° ENE 19:37:09 13° SSE
Resurs 01 Rocket 2.4 19:31:41 30° E 19:32:24 32° ENE 19:36:20 10° N
USA 234 3.9 19:33:08 25° E 19:35:26 31° SE 19:41:04 10° S
Gbstr 26 Del rocket 3.5 19:30:59 10° WNW 19:35:36 70° SSW 19:38:19 30° ESE
Cosmos 2333 Rocket 2.4 19:32:08 10° SW 19:37:49 75° WNW 19:43:35 10° NNE
Cosmos 1937 Rocket 3.8 19:33:04 10° NNW 19:38:04 46° ENE 19:39:49 33° ESE
Cosmos 2123 Rocket 4.4 19:32:47 10° N 19:38:39 40° ENE 19:41:02 29° ESE
Lacrosse 4 Rocket 1.9 19:34:59 10° SW 19:39:24 66° NW 19:43:55 10° NNE
ERBS 3.5 19:38:37 10° WNW 19:41:37 31° N 19:42:16 28° NNE
USA 238 DEB 3.7 19:37:38 10° SSW 19:43:58 52° ESE 19:50:37 10° NE
IGS 5A 4.5 19:44:26 29° NE 19:44:26 29° NE 19:47:43 10° N
USA 238 3.7 19:37:46 10° SSW 19:44:05 52° ESE 19:50:43 10° NE
Cosmos 2322 Rocket 4.2 19:39:50 10° W 19:44:31 26° NW 19:49:14 10° NNE
Cosmos 1842 3.7 19:41:39 10° N 19:45:12 41° ENE 19:45:12 41° ENE
CZ-4 R/B 4.5 19:44:02 10° SW 19:46:17 15° W 19:48:35 10° NW
Cosmos 1869 Rocket 4.5 19:42:39 10° SSW 19:46:55 50° WNW 19:51:15 10° N
Resurs 1-3 3.5 19:45:27 36° SE 19:47:06 65° ENE 19:51:28 10° N
ERS-2 4.0 19:44:22 10° N 19:47:41 33° WNW 19:50:59 10° SW
IRS-1A Rocket 4.2 19:46:16 13° SSE 19:51:18 88° WSW 19:56:52 10° NNW
Cosmos 2219 Rocket 2.6 19:48:29 10° SW 19:54:03 65° WNW 19:59:41 10° NNE
CZ-2C R/B 3.4 19:49:35 10° N 19:54:55 54° WNW 20:00:06 10° SW
CREW DRAGON DEMO-1 DEB 4.5 19:53:48 10° SW 19:55:13 25° SW 19:55:13 25° SW
Cosmos 1238 Rocket 3.0 19:52:47 10° SSW 19:56:42 61° W 20:00:01 10° N
USA 305 3.2 19:53:45 10° WNW 19:57:58 59° SSW 19:58:46 48° SSE
Terra 3.9 20:00:53 14° NE 20:00:53 14° NE 20:02:34 10° NNE
NOSS 5 (C) 4.4 19:56:47 10° SW 20:01:03 85° SE 20:01:05 84° ESE
Cosmos 1980 3.6 19:56:34 10° SSW 20:02:06 60° ESE 20:07:41 10° NE
ERS-1 Rocket 4.4 20:03:06 22° NE 20:03:06 22° NE 20:06:20 10° N
Cosmos 1733 Rocket 2.9 19:59:40 10° S 20:04:01 88° E 20:08:26 10° N
COSMOS 2428 3.2 20:03:31 10° SW 20:09:09 61° NW 20:14:49 10° NNE
Meteor 2-9 Rocket 4.1 20:10:29 52° E 20:10:29 52° E 20:15:30 10° NNE
USA 307 3.3 20:07:33 10° WNW 20:11:43 52° SSW 20:12:00 50° SSW
NOSS 3-2 (A) 3.3 20:06:56 10° SW 20:12:40 83° SE 20:19:22 10° NE
USA 306 3.3 20:08:48 10° WNW 20:12:57 49° SSW 20:13:13 48° SSW
Spot 2 Rocket 4.2 20:14:35 37° NE 20:14:35 37° NE 20:18:53 10° N
ATLAS CENTAUR R/B 3.7 20:12:47 10° WNW 20:15:21 17° NNW 20:17:48 11° NNE
Cosmos 1743 3.3 20:12:50 10° SSW 20:16:41 58° WNW 20:20:32 10° N
Cosmos 2369 Rocket 3.1 20:12:42 10° NNW 20:17:42 32° NE 20:18:00 31° NE
Cosmos 1898 Rocket 3.6 20:12:29 10° NNW 20:17:42 71° WSW 20:19:30 41° S
NOSS 0 Rocket 3.8 20:16:17 10° SSW 20:22:28 88° WNW 20:28:40 10° NNE
USA 308 3.6 20:18:24 10° WNW 20:22:24 45° SW 20:22:24 45° SW
CENTAUR R/B 2.4 20:18:08 10° SSW 20:24:05 71° SE 20:31:18 10° NE
Cosmos 1674 Rocket 4.3 20:27:19 10° NNW 20:31:30 50° W 20:32:23 42° SW
Landsat 7 3.8 20:34:35 72° NNE 20:34:35 72° NNE 20:38:57 10° NNW
OBJECT-B 3.2 20:35:13 19° WSW 20:35:49 20° W 20:38:17 10° NW
Cosmos 372 Rocket 3.9 20:30:41 10° NNW 20:35:34 70° NE 20:35:34 70° NE
ARIANE 5 R/B 3.7 20:39:17 37° NNE 20:39:17 37° NNE 20:42:14 10° N
Ariane Rocket 4.3 20:35:45 16° SSW 20:39:17 38° W 20:44:03 10° NNW
ATLAS 5 CENTAUR R/B 3.9 20:37:07 10° WNW 20:40:22 18° NNW 20:40:39 18° N
Okean 2 4.2 20:37:44 10° NNW 20:40:56 49° NW 20:40:56 49° NW
Cosmos 1763 Rocket 3.5 20:38:45 10° SSW 20:44:05 81° WNW 20:49:26 10° NNE
Cosmos 2297 3.6 20:38:37 10° NNW 20:44:25 89° ENE 20:44:37 84° SE
MetOp-B 4.0 20:45:40 83° SSW 20:45:50 85° WSW 20:51:15 10° NNW
In-Cosmos 22 4.2 20:43:18 10° N 20:48:36 70° NE 20:48:36 70° NE
Cosmos 1975 Rocket 4.3 20:47:15 10° N 20:49:55 35° N 20:49:55 35° N
Cosmos 1125 Rocket 4.5 20:48:02 10° NNW 20:51:54 37° NNE 20:51:54 37° NNE
SJ 16-02 4.1 20:50:45 10° WNW 20:53:13 15° W 20:55:39 10° SW
USA 281 4.1 20:54:08 32° NE 20:54:24 33° NE 21:00:06 10° NNW
NOSS 3-2 (C) 3.3 20:48:43 10° SW 20:54:28 89° NW 20:55:56 56° NE
Cosmos 468 Rocket 4.3 20:50:41 10° SW 20:55:57 64° WNW 21:01:13 10° NNE
Cosmos 1943 Rocket 2.2 20:51:46 10° NNW 20:56:57 72° N 20:56:57 72° N
Cosmos 2278 Rocket 4.2 20:56:33 10° NW 21:00:51 22° WSW 21:04:05 14° SW
Cosmos 2237 Rocket 2.6 20:55:42 10° SW 21:01:20 61° NW 21:07:01 10° NNE
SeaSat 1 4.0 20:57:00 10° NNE 21:01:27 34° NW 21:05:53 10° WSW
SPOT 3 Rocket 4.5 21:05:03 41° WSW 21:05:48 43° W 21:10:48 10° NNW
Resurs 01 Rocket 3.1 21:09:14 34° W 21:09:14 34° W 21:12:56 10° NNW
SPOT 1/Viking Rocket 4.1 21:14:33 55° NW 21:14:33 55° NW 21:18:46 10° NNW
Cosmos 1934 Rocket 4.3 21:14:32 47° SW 21:16:04 61° WNW 21:22:12 10° N
Lacrosse 4 Rocket 4.2 21:15:52 10° WNW 21:18:57 18° NNW 21:22:03 10° NNE
USA 234 3.5 21:20:31 58° SW 21:20:31 58° SW 21:25:38 10° WSW
USA 238 DEB 4.3 21:28:28 10° WSW 21:34:59 53° NNW 21:41:53 10° NE
USA 238 4.3 21:28:34 10° WSW 21:35:05 54° NNW 21:41:59 10° NE
Terra 3.7 21:39:46 25° N 21:39:46 25° N 21:41:45 10° NNW
ERS-1 Rocket 4.5 21:43:05 33° NNW 21:43:05 33° NNW 21:45:55 10° NNW
Cosmos 2369 Rocket 3.6 21:56:34 10° NW 21:59:48 35° NW 21:59:48 35° NW
CENTAUR R/B 3.6 22:09:09 10° W 22:15:18 45° NNW 22:22:36 10° NE
USA 281 4.2 22:40:59 41° NW 22:40:59 41° NW 22:45:03 10° NNW
SL-16 R/B 4.5 23:11:26 19° N 23:11:26 19° N 23:13:44 10° NNE
